Time,TemperatureF,DewpointF,PressureIn,WindDirection,WindDirectionDegrees,WindSpeedMPH,WindSpeedGustMPH,Humidity,HourlyPrecipIn,Conditions,Clouds,dailyrainin,SoftwareType,DateUTC
2013-01-21 00:11:00,29.0,11.0,29.92,WSW,242,1.0,8.0,47,0.00,,,0.00,weatherlink.com 1.10,2013-01-21 05:11:00,
2013-01-21 00:26:00,28.8,11.0,29.92,West,278,4.0,7.0,47,0.00,,,0.00,weatherlink.com 1.10,2013-01-21 05:26:00,
2013-01-21 00:41:00,28.6,12.0,29.93,North,355,2.0,10.0,49,0.00,,,0.00,weatherlink.com 1.10,2013-01-21 05:41:00,
2013-01-21 00:56:00,28.2,11.0,29.94,WNW,285,6.0,17.0,48,0.00,,,0.00,weatherlink.com 1.10,2013-01-21 05:56:00,
2013-01-21 01:11:00,27.8,10.0,29.94,WNW,301,6.0,14.0,48,0.00,,,0.00,weatherlink.com 1.10,2013-01-21 06:11:00,
2013-01-21 01:26:00,27.7,8.0,29.96,West,281,4.0,17.0,44,0.00,,,0.00,weatherlink.com 1.10,2013-01-21 06:26:00,
2013-01-21 01:41:00,27.4,9.0,29.96,West,267,7.0,11.0,45,0.00,,,0.00,weatherlink.com 1.10,2013-01-21 06:41:00,
2013-01-21 01:56:00,27.0,9.0,29.97,WNW,298,5.0,9.0,46,0.00,,,0.00,weatherlink.com 1.10,2013-01-21 06:56:00,
2013-01-21 02:11:00,26.6,9.0,29.98,WSW,255,3.0,12.0,48,0.00,,,0.00,weatherlink.com 1.10,2013-01-21 07:11:00,
2013-01-21 02:26:00,26.4,9.0,29.99,SSW,198,2.0,13.0,47,0.00,,,0.00,weatherlink.com 1.10,2013-01-21 07:26:00,
2013-01-21 02:56:00,25.8,8.0,30.00,WNW,290,7.0,10.0,47,0.00,,,0.00,weatherlink.com 1.10,2013-01-21 07:56:00,
2013-01-21 03:27:00,25.1,10.0,30.01,ENE,78,2.0,7.0,53,0.00,,,0.00,weatherlink.com 1.10,2013-01-21 08:27:00,
2013-01-21 03:41:00,24.7,10.0,30.01,WNW,283,1.0,10.0,54,0.00,,,0.00,weatherlink.com 1.10,2013-01-21 08:41:00,
2013-01-21 03:57:00,24.4,8.0,30.01,WNW,285,3.0,9.0,50,0.00,,,0.00,weatherlink.com 1.10,2013-01-21 08:57:00,
2013-01-21 04:12:00,24.2,7.0,30.02,WNW,285,4.0,10.0,49,0.00,,,0.00,weatherlink.com 1.10,2013-01-21 09:12:00,
2013-01-21 04:27:00,24.0,8.0,30.03,West,279,2.0,8.0,50,0.00,,,0.00,weatherlink.com 1.10,2013-01-21 09:27:00,
2013-01-21 04:42:00,23.6,9.0,30.02,West,259,0.0,4.0,53,0.00,,,0.00,weatherlink.com 1.10,2013-01-21 09:42:00,
2013-01-21 04:57:00,23.4,9.0,30.03,WSW,255,1.0,6.0,54,0.00,,,0.00,weatherlink.com 1.10,2013-01-21 09:57:00,
2013-01-21 05:12:00,23.2,8.0,30.03,NW,312,2.0,4.0,53,0.00,,,0.00,weatherlink.com 1.10,2013-01-21 10:12:00,
2013-01-21 05:27:00,22.9,8.0,30.03,WNW,289,3.0,4.0,52,0.00,,,0.00,weatherlink.com 1.10,2013-01-21 10:27:00,
2013-01-21 05:42:00,22.7,8.0,30.04,WSW,255,0.0,2.0,53,0.00,,,0.00,weatherlink.com 1.10,2013-01-21 10:42:00,
2013-01-21 05:57:00,22.4,7.0,30.05,West,264,1.0,2.0,52,0.00,,,0.00,weatherlink.com 1.10,2013-01-21 10:57:00,
2013-01-21 06:12:00,22.5,7.0,30.05,West,267,1.0,4.0,51,0.00,,,0.00,weatherlink.com 1.10,2013-01-21 11:12:00,
2013-01-21 06:28:00,22.5,6.0,30.06,WNW,284,2.0,4.0,49,0.00,,,0.00,weatherlink.com 1.10,2013-01-21 11:28:00,
2013-01-21 06:42:00,22.4,5.0,30.06,West,259,3.0,7.0,48,0.00,,,0.00,weatherlink.com 1.10,2013-01-21 11:42:00,
2013-01-21 06:57:00,22.3,5.0,30.06,West,260,1.0,4.0,48,0.00,,,0.00,weatherlink.com 1.10,2013-01-21 11:57:00,
2013-01-21 07:12:00,22.1,6.0,30.06,West,277,2.0,6.0,49,0.00,,,0.00,weatherlink.com 1.10,2013-01-21 12:12:00,
2013-01-21 07:27:00,22.2,6.0,30.06,WNW,286,1.0,9.0,49,0.00,,,0.00,weatherlink.com 1.10,2013-01-21 12:27:00,
2013-01-21 07:42:00,22.3,6.0,30.06,West,276,0.0,7.0,50,0.00,,,0.00,weatherlink.com 1.10,2013-01-21 12:42:00,
2013-01-21 07:57:00,22.5,6.0,30.07,West,268,3.0,9.0,49,0.00,,,0.00,weatherlink.com 1.10,2013-01-21 12:57:00,
2013-01-21 08:12:00,22.7,6.0,30.07,West,277,2.0,8.0,49,0.00,,,0.00,weatherlink.com 1.10,2013-01-21 13:12:00,
2013-01-21 08:27:00,22.9,6.0,30.07,West,269,3.0,7.0,48,0.00,,,0.00,weatherlink.com 1.10,2013-01-21 13:27:00,
2013-01-21 08:42:00,23.1,6.0,30.08,WNW,283,4.0,6.0,47,0.00,,,0.00,weatherlink.com 1.10,2013-01-21 13:42:00,
2013-01-21 08:57:00,23.5,5.0,30.09,WNW,287,3.0,8.0,46,0.00,,,0.00,weatherlink.com 1.10,2013-01-21 13:57:00,
2013-01-21 09:12:00,23.7,6.0,30.09,WNW,290,0.0,8.0,46,0.00,,,0.00,weatherlink.com 1.10,2013-01-21 14:12:00,
2013-01-21 09:27:00,24.2,6.0,30.10,West,281,7.0,9.0,45,0.00,,,0.00,weatherlink.com 1.10,2013-01-21 14:27:00,
2013-01-21 09:42:00,24.5,6.0,30.09,WSW,245,2.0,7.0,45,0.00,,,0.00,weatherlink.com 1.10,2013-01-21 14:42:00,
2013-01-21 09:57:00,24.7,6.0,30.09,SSW,203,3.0,6.0,45,0.00,,,0.00,weatherlink.com 1.10,2013-01-21 14:57:00,
2013-01-21 10:12:00,24.6,6.0,30.10,West,277,3.0,8.0,45,0.00,,,0.00,weatherlink.com 1.10,2013-01-21 15:12:00,
2013-01-21 10:27:00,25.2,6.0,30.09,WNW,288,3.0,8.0,44,0.00,,,0.00,weatherlink.com 1.10,2013-01-21 15:27:00,
2013-01-21 10:42:00,25.9,7.0,30.08,South,176,2.0,9.0,44,0.00,,,0.00,weatherlink.com 1.10,2013-01-21 15:42:00,
2013-01-21 10:57:00,26.3,6.0,30.07,West,264,7.0,8.0,42,0.00,,,0.00,weatherlink.com 1.10,2013-01-21 15:57:00,
2013-01-21 11:12:00,26.2,5.0,30.05,NNW,336,2.0,9.0,41,0.00,,,0.00,weatherlink.com 1.10,2013-01-21 16:12:00,
2013-01-21 11:27:00,26.6,5.0,30.04,NW,312,1.0,6.0,40,0.00,,,0.00,weatherlink.com 1.10,2013-01-21 16:27:00,
2013-01-21 11:42:00,26.6,6.0,30.04,WNW,290,1.0,7.0,41,0.00,,,0.00,weatherlink.com 1.10,2013-01-21 16:42:00,
2013-01-21 11:57:00,26.9,5.0,30.03,West,268,0.0,6.0,40,0.00,,,0.00,weatherlink.com 1.10,2013-01-21 16:57:00,
2013-01-21 12:12:00,27.4,6.0,30.02,West,266,1.0,5.0,40,0.00,,,0.00,weatherlink.com 1.10,2013-01-21 17:12:00,
2013-01-21 12:27:00,28.0,6.0,30.01,West,266,3.0,7.0,40,0.00,,,0.00,weatherlink.com 1.10,2013-01-21 17:27:00,
2013-01-21 12:42:00,28.4,6.0,30.00,WNW,288,2.0,6.0,39,0.00,,,0.00,weatherlink.com 1.10,2013-01-21 17:42:00,
2013-01-21 12:57:00,29.4,7.0,29.99,WSW,249,4.0,7.0,38,0.00,,,0.00,weatherlink.com 1.10,2013-01-21 17:57:00,
2013-01-21 13:12:00,29.2,6.0,29.99,East,98,2.0,7.0,38,0.00,,,0.00,weatherlink.com 1.10,2013-01-21 18:12:00,
2013-01-21 13:27:00,28.9,6.0,29.98,WNW,293,5.0,9.0,37,0.00,,,0.00,weatherlink.com 1.10,2013-01-21 18:27:00,
2013-01-21 13:42:00,28.6,6.0,29.98,WSW,252,2.0,10.0,38,0.00,,,0.00,weatherlink.com 1.10,2013-01-21 18:42:00,
2013-01-21 13:57:00,28.7,6.0,29.98,SSW,205,1.0,7.0,38,0.00,,,0.00,weatherlink.com 1.10,2013-01-21 18:57:00,
2013-01-21 14:13:00,28.6,7.0,29.98,WSW,239,4.0,7.0,40,0.00,,,0.00,weatherlink.com 1.10,2013-01-21 19:13:00,
2013-01-21 14:27:00,28.4,7.0,29.98,SSW,195,3.0,10.0,40,0.00,,,0.00,weatherlink.com 1.10,2013-01-21 19:27:00,
2013-01-21 14:43:00,28.3,7.0,29.97,WSW,257,3.0,7.0,40,0.00,,,0.00,weatherlink.com 1.10,2013-01-21 19:43:00,
2013-01-21 14:58:00,28.3,7.0,29.97,NW,306,1.0,10.0,40,0.00,,,0.00,weatherlink.com 1.10,2013-01-21 19:58:00,
2013-01-21 15:13:00,28.2,7.0,29.96,West,274,5.0,7.0,40,0.00,,,0.00,weatherlink.com 1.10,2013-01-21 20:13:00,
2013-01-21 15:28:00,28.6,7.0,29.95,West,271,0.0,3.0,40,0.00,,,0.00,weatherlink.com 1.10,2013-01-21 20:28:00,
2013-01-21 15:43:00,28.2,8.0,29.95,SSW,212,1.0,6.0,42,0.00,,,0.00,weatherlink.com 1.10,2013-01-21 20:43:00,
2013-01-21 15:58:00,28.1,8.0,29.95,West,269,1.0,4.0,42,0.00,,,0.00,weatherlink.com 1.10,2013-01-21 20:58:00,
2013-01-21 16:13:00,27.7,8.0,29.94,North,355,4.0,7.0,44,0.00,,,0.00,weatherlink.com 1.10,2013-01-21 21:13:00,
2013-01-21 16:28:00,27.8,11.0,29.94,SW,217,4.0,5.0,49,0.00,,,0.00,weatherlink.com 1.10,2013-01-21 21:28:00,
2013-01-21 16:43:00,27.5,11.0,29.93,West,277,1.0,5.0,51,0.00,,,0.00,weatherlink.com 1.10,2013-01-21 21:43:00,
2013-01-21 16:58:00,27.3,11.0,29.93,SW,219,2.0,6.0,50,0.00,,,0.00,weatherlink.com 1.10,2013-01-21 21:58:00,
2013-01-21 17:13:00,27.1,11.0,29.94,WNW,284,3.0,5.0,52,0.00,,,0.00,weatherlink.com 1.10,2013-01-21 22:13:00,
2013-01-21 17:28:00,27.0,13.0,29.94,NW,307,2.0,5.0,56,0.00,,,0.00,weatherlink.com 1.10,2013-01-21 22:28:00,
2013-01-21 17:43:00,26.5,15.0,29.94,West,276,1.0,5.0,61,0.00,,,0.00,weatherlink.com 1.10,2013-01-21 22:43:00,
2013-01-21 17:58:00,26.0,16.0,29.94,West,276,2.0,4.0,65,0.00,,,0.00,weatherlink.com 1.10,2013-01-21 22:58:00,
2013-01-21 18:29:00,24.6,19.0,29.94,NNW,338,2.0,3.0,79,0.00,,,0.00,weatherlink.com 1.10,2013-01-21 23:29:00,
2013-01-21 18:43:00,24.3,19.0,29.93,NNW,333,1.0,3.0,81,0.00,,,0.00,weatherlink.com 1.10,2013-01-21 23:43:00,
2013-01-21 18:58:00,24.1,20.0,29.93,NNE,18,0.0,2.0,85,0.00,,,0.00,weatherlink.com 1.10,2013-01-21 23:58:00,
2013-01-21 19:13:00,23.8,20.0,29.94,NNW,343,0.0,3.0,85,0.00,,,0.00,weatherlink.com 1.10,2013-01-22 00:13:00,
2013-01-21 19:28:00,23.8,21.0,29.93,WNW,284,0.0,1.0,87,0.00,,,0.00,weatherlink.com 1.10,2013-01-22 00:28:00,
2013-01-21 19:43:00,23.7,20.0,29.93,WNW,285,0.0,1.0,86,0.00,,,0.00,weatherlink.com 1.10,2013-01-22 00:43:00,
2013-01-21 19:58:00,23.7,20.0,29.91,NNE,14,0.0,1.0,87,0.00,,,0.00,weatherlink.com 1.10,2013-01-22 00:58:00,
2013-01-21 20:13:00,23.8,21.0,29.91,NNE,19,0.0,2.0,88,0.00,,,0.00,weatherlink.com 1.10,2013-01-22 01:13:00,
2013-01-21 20:28:00,23.7,21.0,29.91,NNE,32,0.0,1.0,88,0.00,,,0.00,weatherlink.com 1.10,2013-01-22 01:28:00,
2013-01-21 20:43:00,23.7,21.0,29.91,ENE,74,0.0,1.0,88,0.00,,,0.00,weatherlink.com 1.10,2013-01-22 01:43:00,
2013-01-21 20:58:00,23.7,20.0,29.91,NE,44,0.0,1.0,87,0.00,,,0.00,weatherlink.com 1.10,2013-01-22 01:58:00,
2013-01-21 21:13:00,23.7,21.0,29.89,NE,44,0.0,1.0,88,0.00,,,0.00,weatherlink.com 1.10,2013-01-22 02:13:00,
2013-01-21 21:29:00,23.5,21.0,29.88,ESE,112,0.0,1.0,88,0.00,,,0.00,weatherlink.com 1.10,2013-01-22 02:29:00,
2013-01-21 21:43:00,23.3,20.0,29.87,SE,141,0.0,1.0,88,0.00,,,0.00,weatherlink.com 1.10,2013-01-22 02:43:00,
2013-01-21 21:58:00,23.3,21.0,29.87,SE,131,0.0,1.0,89,0.00,,,0.00,weatherlink.com 1.10,2013-01-22 02:58:00,
2013-01-21 22:13:00,23.6,21.0,29.86,NNW,338,0.0,1.0,89,0.00,,,0.00,weatherlink.com 1.10,2013-01-22 03:13:00,
2013-01-21 22:28:00,23.7,21.0,29.85,NE,44,0.0,1.0,88,0.00,,,0.00,weatherlink.com 1.10,2013-01-22 03:28:00,
2013-01-21 22:43:00,23.7,21.0,29.85,NE,40,1.0,1.0,88,0.00,,,0.00,weatherlink.com 1.10,2013-01-22 03:43:00,
2013-01-21 22:58:00,23.7,20.0,29.83,NE,37,0.0,1.0,87,0.00,,,0.00,weatherlink.com 1.10,2013-01-22 03:58:00,
2013-01-21 23:13:00,23.6,20.0,29.82,ENE,75,0.0,1.0,87,0.00,,,0.00,weatherlink.com 1.10,2013-01-22 04:13:00,
2013-01-21 23:28:00,23.6,20.0,29.80,NNE,33,0.0,1.0,87,0.00,,,0.00,weatherlink.com 1.10,2013-01-22 04:28:00,
2013-01-21 23:43:00,23.5,20.0,29.80,East,94,0.0,1.0,87,0.00,,,0.00,weatherlink.com 1.10,2013-01-22 04:43:00,
2013-01-21 23:58:00,23.4,20.0,29.80,NNE,29,0.0,1.0,87,0.00,,,0.00,weatherlink.com 1.10,2013-01-22 04:58:00,